This demonstration page uses our WeatherBlox Daily Observations layout. Learn more.

Left ArrowRight Arrow

39.92423, -83.80882

Hourly Observations for December 14, 2015

Temp ( °F °C ) Dew Point ( °F °C ) Humidity (%) Winds ( mph kmh ) Pressure ( in mb ) Visibility ( mi km ) Precip ( " mm )
12:56 am 00:56 Clear 55 12.7 52 11.1 90 90 ESE 9 15 29.73 1007 10 16.0934 0 0
1:56 am 01:56 Clear 56 13.3 51 10.5 83 83 SE 10 17 29.7 1006 10 16.0934 0 0
2:56 am 02:56 Clear 56 13.3 51 10.5 83 83 SSE 12 19 29.68 1005 10 16.0934 0 0
3:56 am 03:56 Clear 57 13.8 48 8.8 72 72 SSE 15 24 29.64 1004 10 16.0934 0 0
4:56 am 04:56 Clear 58 14.4 48 8.8 69 69 SSE 13 20 29.61 1003 10 16.0934 0 0
5:56 am 05:56 Mostly Cloudy 60 15.5 49 9.4 67 67 SSE 15 24 29.57 1002 10 16.0934 0 0
6:56 am 06:56 Partly Cloudy 60 15.5 49 9.4 67 67 SE 16 26 29.54 1001 10 16.0934 0 0
7:56 am 07:56 Cloudy with Haze 61 16.1 53 11.6 75 75 S 20 31 29.56 1001 6 9.65604 0 0
8:06 am 08:06 Cloudy with Mist and Fog 59 15 55 13 88 88 S 16 26 29.56 1001 2.5 4.02335 0 0
8:23 am 08:23 Cloudy with Mist and Fog 57 14 57 14 100 100 S 12 19 29.56 1001 3 4.82802 0.02 0.508
8:34 am 08:34 Cloudy with Mist and Fog 57 14 57 14 100 100 S 13 20 29.56 1001 4 6.43736 0.03 0.762
8:46 am 08:46 Cloudy with Light Rain 57 14 57 14 100 100 S 10 17 29.53 1000 2.5 4.02335 0.05 1.27
8:56 am 08:56 Cloudy 58 14.4 57 13.8 96 96 S 10 17 29.56 1001 10 16.0934 0.05 1.27
9:20 am 09:20 Mostly Cloudy with Light Rain 57 14 57 14 100 100 S 13 20 29.53 1000 2.5 4.02335 0.02 0.508
9:22 am 09:22 Cloudy with Light Rain 57 14 57 14 100 100 S 12 19 29.53 1000 4 6.43736 0.02 0.508
9:30 am 09:30 Mostly Cloudy with Light Rain 57 14 55 13 94 94 SSE 10 17 29.53 1000 8 12.87472 0.03 0.762
9:40 am 09:40 Cloudy with Light Rain 57 14 55 13 94 94 SSE 12 19 29.53 1000 7 11.26538 0.03 0.762
9:48 am 09:48 Cloudy with Mist and Fog 57 14 55 13 94 94 SSE 10 17 29.53 1000 5 8.0467 0.04 1.016
9:56 am 09:56 Mostly Cloudy with Light Rain 57 13.8 55 12.7 93 93 SSE 13 20 29.52 1000 6 9.65604 0.05 1.27
10:56 am 10:56 Cloudy with Mist and Fog 56 13.3 56 13.3 100 100 SSE 15 24 29.48 998 6 9.65604 0.05 1.27
11:56 am 11:56 Cloudy 56 13.3 55 12.7 96 96 S 12 19 29.46 998 10 16.0934 0.02 0.508
12:03 pm 12:03 Cloudy 57 14 55 13 94 94 SSW 15 24 29.47 998 10 16.0934 0 0
12:06 pm 12:06 Cloudy with Mist and Fog 57 14 55 13 94 94 SSW 23 37 29.47 998 2 3.21868 0.02 0.508
12:09 pm 12:09 Cloudy with Light Rain 55 13 55 13 100 100 S 24 39 29.47 998 1.25 2.011675 0.03 0.762
12:14 pm 12:14 Cloudy with Mist and Fog 55 13 54 12 94 94 S 22 35 29.47 998 1.5 2.41401 0.03 0.762
12:16 pm 12:16 Cloudy with Mist and Fog 55 13 54 12 94 94 S 23 37 29.47 998 3 4.82802 0.03 0.762
12:21 pm 12:21 Cloudy 55 13 52 11 88 88 S 17 28 29.47 998 10 16.0934 0.03 0.762
12:56 pm 12:56 Mostly Cloudy 58 14.4 52 11.1 81 81 S 18 30 29.45 997 10 16.0934 0.03 0.762
1:56 pm 13:56 Mostly Cloudy 58 14.4 48 8.8 69 69 S 24 39 29.43 997 10 16.0934 0 0
2:56 pm 14:56 Cloudy 56 13.3 46 7.7 69 69 S 22 35 29.42 996 10 16.0934 0 0
3:56 pm 15:56 Mostly Cloudy 54 12.2 48 8.8 80 80 SW 16 26 29.46 998 10 16.0934 0 0
4:56 pm 16:56 Cloudy 53 11.6 47 8.3 80 80 SW 23 37 29.47 998 10 16.0934 0 0
5:56 pm 17:56 Mostly Cloudy 52 11.1 47 8.3 83 83 SSW 21 33 29.49 999 10 16.0934 0 0
6:56 pm 18:56 Cloudy 52 11.1 45 7.2 77 77 SSW 20 31 29.52 1000 10 16.0934 0 0
7:18 pm 19:18 Cloudy with Light Rain 52 11 46 8 82 82 WSW 20 31 29.56 1001 4 6.43736 0 0.0254
7:56 pm 19:56 Cloudy with Light Rain 49 9.4 44 6.6 83 83 SW 26 43 29.55 1001 10 16.0934 0.03 0.762
8:56 pm 20:56 Cloudy with Light Rain 48 8.8 44 6.6 86 86 WSW 20 31 29.57 1001 7 11.26538 0.01 0.254
9:56 pm 21:56 Cloudy 48 8.8 46 7.7 93 93 SW 16 26 29.58 1002 10 16.0934 0.01 0.254
10:56 pm 22:56 Cloudy 47 8.3 44 6.6 89 89 SW 17 28 29.61 1003 10 16.0934 0.01 0.254
11:04 pm 23:04 Cloudy 46 8 45 7 93 93 WSW 15 24 29.62 1003 10 16.0934 0 0
11:16 pm 23:16 Cloudy 46 8 45 7 93 93 WSW 16 26 29.62 1003 10 16.0934 0 0
11:26 pm 23:26 Cloudy 46 8 45 7 93 93 SW 15 24 29.62 1003 10 16.0934 0 0
11:56 pm 23:56 Cloudy 46 7.7 43 6.1 90 90 WSW 15 24 29.65 1004 7 11.26538 0 0

Powered by AerisWeather